[[{"header":{"parameterUnit":"m.s-1","parameterCategory":1,"la1":30.2991,"la2":30.254,"lo1":-89.0895,"lo2":-89.0444,"dy":0.0017,"dx":0.0017,"nx":28,"ny":28,"refTime":"2024-10-22T03:00:00:Z","depth":0,"parameterNumber":2,"parameterNumberName":"U-component_of_WINDS"},"data":[0,0,0,0,0,0,0,0,0,0,0,0,0,0,0,0,0,0,0,0,0,0,0,0,0,0,0,0,0,0,0,0,0,0,0,0,0,0,0,0,0,0,0,0,0,0,0,0,0,0,0,0,0,0,0,0,0,0,-1.7713,-1.7713,0,-1.7664,-1.7663,-1.7662,-1.7605,-1.7604,-1.7603,-1.7602,-1.7552,-1.7551,-1.7551,0,0,0,0,0,0,0,0,0,0,0,0,0,-1.7759,-1.7759,-1.7713,-1.7712,-1.7712,-1.7664,-1.7663,-1.7662,-1.7605,-1.7604,-1.7603,-1.7602,-1.7552,-1.7551,-1.7551,0,0,0,0,0,0,0,0,0,0,0,0,0,-1.7728,-1.7759,-1.7713,-1.7678,-1.7674,-1.7664,-1.7663,-1.7662,-1.7605,-1.7604,-1.7603,-1.7601,-1.7552,-1.7551,-1.7551,-1.7572,0,0,-1.7548,-1.7548,0,0,0,0,0,0,0,0,-1.773,-1.7726,-1.7683,-1.768,-1.7676,-1.7639,-1.7661,-1.7632,-1.7606,-1.7631,-1.7602,-1.7601,-1.7582,-1.7579,-1.7572,-1.7569,-1.7567,-1.7548,-1.7548,-1.7547,-1.7547,0,0,0,0,0,0,0,-1.7732,-1.7728,-1.7693,-1.7683,-1.7678,-1.7664,-1.7658,-1.7655,-1.7615,-1.7629,-1.7625,-1.762,-1.758,-1.7573,-1.7571,-1.7566,-1.7548,-1.7547,-1.7547,-1.7547,-1.7581,-1.7582,0,0,0,0,0,0,-1.7739,-1.773,-1.7695,-1.7692,-1.77,-1.7665,-1.7658,-1.7652,-1.7614,-1.7607,-1.7621,-1.7617,-1.7575,-1.7572,-1.7569,-1.7592,-1.7547,-1.7546,-1.7546,-1.7579,-1.7581,-1.7582,0,0,0,0,0,0,-1.7741,-1.7737,-1.7697,-1.771,-1.7704,-1.7665,-1.7659,-1.7652,-1.7645,-1.7608,-1.7601,-1.7621,-1.7574,-1.757,-1.7572,-1.7589,-1.7546,-1.7545,-1.7578,-1.758,-1.7582,-1.7638,0,0,0,0,0,0,-1.7742,-1.7737,-1.7745,-1.771,-1.7703,-1.7701,-1.766,-1.7652,-1.7644,-1.7639,-1.7607,-1.76,-1.7573,-1.7573,-1.7571,-1.7587,-1.7545,-1.7576,-1.7579,-1.7581,-1.7635,-1.7642,-1.7648,0,0,0,0,0,-1.7744,-1.7762,-1.7745,-1.7741,-1.7711,-1.7702,-1.7698,-1.7665,-1.7646,-1.7653,-1.7629,-1.7601,-1.7588,-1.7574,-1.7571,-1.7587,-1.7575,-1.7578,-1.7581,-1.7631,-1.764,-1.7648,0,0,0,0,0,0,-1.7798,-1.7757,-1.7738,-1.7745,-1.7728,-1.7692,-1.77,-1.7676,-1.7663,-1.7659,-1.7619,-1.7613,-1.762,-1.7604,-1.7589,-1.7607,-1.7577,-1.758,-1.7617,-1.7625,-1.7632,-1.7635,-1.7544,0,0,0,0,0,-1.7812,-1.7807,-1.7771,-1.7781,-1.7773,-1.7739,-1.7733,-1.771,-1.769,-1.7682,-1.7659,-1.7641,-1.7633,-1.7628,-1.7618,-1.7632,-1.7625,-1.7642,-1.7649,-1.7655,-1.7658,-1.7665,-1.7673,-1.7593,-1.7593,-1.7593,0,0,-1.7838,-1.7815,-1.7814,-1.7792,-1.7775,-1.7772,-1.7732,-1.773,-1.7728,-1.7682,-1.7683,-1.7665,-1.7643,-1.7651,-1.7654,-1.7638,-1.7679,-1.7659,-1.7664,-1.7663,-1.767,-1.7677,-1.7684,-1.7595,-1.7594,-1.7594,0,0,-1.7885,-1.7866,-1.7874,-1.7859,-1.7835,-1.7812,-1.7814,-1.7782,-1.7769,-1.777,-1.7736,-1.7733,-1.7719,-1.7705,-1.7696,-1.774,-1.7715,-1.7738,-1.7774,-1.7782,-1.7788,-1.7794,-1.7811,-1.7817,-1.7741,-1.7741,-1.7742,0,-1.7921,-1.7914,-1.788,-1.7881,-1.7873,-1.7832,-1.7839,-1.7826,-1.7801,-1.7796,-1.7779,-1.7762,-1.7744,-1.775,-1.7761,-1.7755,-1.7757,-1.7741,-1.779,-1.7795,-1.78,-1.7816,-1.7822,-1.7745,-1.7744,-1.7744,-1.7744,0,-1.796,-1.7957,-1.7965,-1.7942,-1.7935,-1.7939,-1.7907,-1.7903,-1.7882,-1.7861,-1.7863,-1.784,-1.7826,-1.7826,-1.7804,-1.7829,-1.782,-1.7797,-1.7767,-1.7811,-1.7825,-1.7831,-1.7749,-1.7748,-1.7747,-1.7746,0,0,-1.8038,-1.7998,-1.8002,-1.7992,-1.7963,-1.796,-1.7963,-1.795,-1.7949,-1.7933,-1.7935,-1.7926,-1.7905,-1.7895,-1.7872,-1.7879,-1.7918,-1.7855,-1.7854,-1.7868,-1.7945,-1.7963,-1.797,-1.7901,-1.7902,-1.7902,-1.7947,0,-1.808,-1.8082,-1.8053,-1.8064,-1.8061,-1.8024,-1.8027,-1.801,-1.7992,-1.7987,-1.7967,-1.7961,-1.7934,-1.7928,-1.7933,-1.7912,-1.7933,-1.7908,-1.7903,-1.7903,-1.791,-1.7977,-1.7995,-1.8039,-1.7953,-1.7953,-1.7954,0,-1.8128,-1.8116,-1.8127,-1.8101,-1.8098,-1.8102,-1.8088,-1.8084,-1.8065,-1.8051,-1.8042,-1.8016,-1.8018,-1.799,-1.7993,-1.7977,-1.7974,-1.7963,-1.7964,-1.7962,-1.7931,-1.7978,-1.8051,-1.8058,-1.7962,-1.7962,-1.7961,0,-1.8185,-1.8172,-1.8177,-1.8169,-1.8138,-1.8142,-1.8129,-1.8109,-1.8104,-1.8092,-1.8088,-1.8077,-1.8071,-1.8064,-1.8036,-1.8018,-1.8044,-1.8012,-1.8033,-1.8034,-1.8039,-1.8039,-1.8114,-1.8037,-1.8037,-1.8037,-1.8037,0,-1.8234,-1.8243,-1.8202,-1.8205,-1.8214,-1.8181,-1.8191,-1.8175,-1.8158,-1.8158,-1.8125,-1.8126,-1.8089,-1.8087,-1.8065,-1.8072,-1.8069,-1.8059,-1.8053,-1.8062,-1.8063,-1.8059,-1.8055,-1.8039,-1.8038,-1.8038,-1.8038,0,-1.8298,-1.8271,-1.8275,-1.8246,-1.8239,-1.8247,-1.8223,-1.8225,-1.8205,-1.8206,-1.8204,-1.8174,-1.8169,-1.8141,-1.8129,-1.8115,-1.813,-1.8118,-1.8136,-1.8132,-1.8155,-1.8153,-1.8229,-1.8238,-1.8155,-1.8156,-1.8157,0,-1.8332,-1.8337,-1.831,-1.8308,-1.8297,-1.8294,-1.8289,-1.8257,-1.8253,-1.8234,-1.8239,-1.8232,-1.8224,-1.8219,-1.8196,-1.8188,-1.8176,-1.8203,-1.8174,-1.8184,-1.8177,-1.8177,-1.8178,-1.8209,-1.821,-1.8211,-1.8212,0,-1.8394,-1.8381,-1.8375,-1.8365,-1.836,-1.835,-1.8338,-1.8339,-1.8304,-1.8302,-1.8297,-1.8291,-1.8281,-1.8274,-1.8263,-1.825,-1.8226,-1.8221,-1.8225,-1.8234,-1.8245,-1.824,-1.8153,-1.8219,-1.8218,-1.8218,-1.8217,-1.8217,-1.8444,-1.8448,-1.843,-1.8425,-1.8413,-1.8404,-1.8405,-1.8386,-1.8382,-1.8371,-1.8353,-1.8351,-1.8335,-1.8316,-1.8306,-1.8305,-1.8291,-1.8297,-1.8298,-1.83,-1.8305,-1.8246,-1.8303,-1.8302,-1.8302,-1.8302,-1.8302,0,-1.8505,-1.8492,-1.8488,-1.8473,-1.847,-1.8448,-1.8434,-1.8433,-1.8432,-1.8419,-1.8413,-1.8408,-1.8403,-1.838,-1.8373,-1.8376,-1.8365,-1.8375,-1.8375,-1.8373,-1.8318,-1.8315,-1.8385,-1.8385,-1.8385,-1.8385,-1.8385,-1.8385,-1.8536,-1.8543,-1.8528,-1.8529,-1.8516,-1.8514,-1.8509,-1.8501,-1.849,-1.8487,-1.8482,-1.8468,-1.8451,-1.8443,-1.8437,-1.8431,-1.843,-1.8444,-1.8434,-1.8384,-1.8376,-1.8368,-1.8366,-1.8444,-1.8444,-1.8489,-1.8489,-1.849]},{"header":{"parameterUnit":"m.s-1","parameterCategory":1,"la1":30.2991,"la2":30.254,"lo1":-89.0895,"lo2":-89.0444,"dy":0.0017,"dx":0.0017,"nx":28,"ny":28,"refTime":"2024-10-22T03:00:00:Z","depth":0,"parameterNumber":3,"parameterNumberName":"V-component_of_WINDS"},"data":[0,0,0,0,0,0,0,0,0,0,0,0,0,0,0,0,0,0,0,0,0,0,0,0,0,0,0,0,0,0,0,0,0,0,0,0,0,0,0,0,0,0,0,0,0,0,0,0,0,0,0,0,0,0,0,0,0,0,0.5748,0.5748,0,0.5766,0.5766,0.5766,0.5835,0.5836,0.5838,0.5839,0.5854,0.5853,0.5852,0,0,0,0,0,0,0,0,0,0,0,0,0,0.5769,0.5768,0.5748,0.5748,0.5749,0.5766,0.5766,0.5767,0.5835,0.5837,0.5838,0.584,0.5855,0.5854,0.5852,0,0,0,0,0,0,0,0,0,0,0,0,0,0.5771,0.5768,0.5748,0.5785,0.5788,0.5766,0.5766,0.5767,0.5834,0.5837,0.5839,0.5841,0.5855,0.5854,0.5852,0.5795,0,0,0.5847,0.5847,0,0,0,0,0,0,0,0,0.577,0.577,0.5779,0.5782,0.5786,0.5801,0.5779,0.5776,0.5834,0.5817,0.584,0.5842,0.5834,0.5835,0.5833,0.5796,0.5796,0.5847,0.5846,0.5845,0.5845,0,0,0,0,0,0,0,0.577,0.5769,0.5755,0.5779,0.5783,0.5799,0.5802,0.5779,0.5812,0.5818,0.5823,0.5825,0.5837,0.5834,0.5834,0.5797,0.5847,0.5846,0.5845,0.5844,0.5711,0.5708,0,0,0,0,0,0,0.5765,0.5769,0.5755,0.5756,0.5784,0.5797,0.58,0.5794,0.5812,0.5818,0.5823,0.5828,0.5836,0.5835,0.5834,0.5767,0.5845,0.5844,0.5843,0.5713,0.571,0.5707,0,0,0,0,0,0,0.5766,0.5763,0.5754,0.5764,0.5764,0.5794,0.5786,0.5793,0.579,0.5816,0.5822,0.5814,0.5838,0.5837,0.5804,0.5768,0.5843,0.5842,0.5716,0.5712,0.5709,0.5632,0,0,0,0,0,0,0.5766,0.5763,0.5743,0.5763,0.5763,0.5724,0.5784,0.5791,0.5788,0.5794,0.5809,0.5814,0.5839,0.5806,0.5802,0.5767,0.584,0.572,0.5715,0.571,0.5638,0.5626,0.5616,0,0,0,0,0,0.5766,0.572,0.5741,0.5739,0.5738,0.5722,0.5722,0.5753,0.5785,0.5763,0.578,0.5813,0.5773,0.5802,0.5799,0.5762,0.5722,0.5716,0.571,0.5643,0.5628,0.5616,0,0,0,0,0,0,0.5694,0.5723,0.5747,0.5706,0.5711,0.5733,0.5708,0.5737,0.5732,0.5739,0.5777,0.5779,0.574,0.5749,0.578,0.5707,0.5753,0.5746,0.5703,0.5689,0.5678,0.5676,0.5839,0,0,0,0,0,0.5674,0.5659,0.5685,0.5646,0.5648,0.5677,0.5671,0.5695,0.5701,0.5703,0.5717,0.572,0.5709,0.57,0.569,0.564,0.5643,0.5613,0.5602,0.5593,0.5586,0.5557,0.5544,0.5688,0.5688,0.5689,0,0,0.5631,0.5645,0.5633,0.5632,0.5639,0.5621,0.5678,0.5658,0.5645,0.57,0.5669,0.5679,0.5686,0.5643,0.5625,0.5649,0.5547,0.5586,0.5578,0.5576,0.555,0.5536,0.5524,0.5684,0.5685,0.5686,0,0,0.5543,0.5553,0.5521,0.5526,0.5536,0.5556,0.5548,0.5566,0.5575,0.5545,0.5585,0.557,0.5549,0.5551,0.555,0.5462,0.5492,0.5458,0.5399,0.5371,0.5359,0.5349,0.5315,0.5303,0.5451,0.5451,0.5451,0,0.5488,0.5464,0.5501,0.5477,0.5474,0.5524,0.5491,0.5494,0.5499,0.5496,0.5523,0.5496,0.5504,0.5462,0.544,0.5438,0.5428,0.5455,0.5358,0.5349,0.534,0.5308,0.5295,0.5446,0.5447,0.5447,0.5448,0,0.5395,0.5378,0.5351,0.5355,0.535,0.5321,0.5351,0.5341,0.5365,0.5382,0.5349,0.5361,0.5354,0.5346,0.5369,0.5306,0.532,0.5352,0.5399,0.5321,0.5291,0.528,0.544,0.5442,0.5443,0.5444,0,0,0.5261,0.5286,0.5275,0.5276,0.529,0.5277,0.525,0.5244,0.5233,0.5236,0.5212,0.5193,0.5223,0.5221,0.5245,0.522,0.5146,0.5255,0.5256,0.5232,0.5074,0.5048,0.5033,0.5167,0.5165,0.5164,0.5073,0,0.5175,0.5132,0.5163,0.5113,0.5097,0.5144,0.512,0.5125,0.5139,0.5126,0.5142,0.5127,0.5169,0.5167,0.5145,0.516,0.5115,0.5167,0.5143,0.5142,0.5138,0.5018,0.4991,0.4905,0.5062,0.506,0.5059,0,0.507,0.5067,0.5016,0.5032,0.5026,0.5004,0.5,0.4988,0.4993,0.5006,0.5003,0.5033,0.5005,0.5053,0.5015,0.505,0.5042,0.5047,0.5045,0.5042,0.5094,0.501,0.4879,0.4864,0.5041,0.5043,0.5044,0,0.4974,0.4958,0.4924,0.4925,0.4943,0.4926,0.4933,0.4942,0.4935,0.4931,0.4927,0.492,0.4915,0.4908,0.4934,0.4967,0.4891,0.4942,0.4898,0.4897,0.4878,0.4879,0.4741,0.4877,0.4877,0.4878,0.4878,0,0.4873,0.4839,0.4881,0.486,0.4823,0.4859,0.4821,0.4833,0.4839,0.482,0.4861,0.4842,0.4879,0.4863,0.4883,0.4847,0.4845,0.4852,0.4857,0.4847,0.4846,0.4841,0.4846,0.4874,0.4875,0.4876,0.4876,0,0.4759,0.4786,0.4753,0.4773,0.4777,0.4748,0.4765,0.4745,0.4763,0.4738,0.4734,0.4761,0.4744,0.477,0.4756,0.477,0.4719,0.4734,0.4716,0.472,0.4674,0.4677,0.4527,0.4508,0.4658,0.4657,0.4656,0,0.4692,0.4667,0.4685,0.4675,0.468,0.4664,0.4658,0.4692,0.4684,0.4688,0.4667,0.4654,0.4645,0.4616,0.4633,0.4622,0.4636,0.4584,0.4634,0.4624,0.4632,0.4632,0.4628,0.4573,0.4571,0.457,0.4568,0,0.4569,0.4584,0.4574,0.4568,0.456,0.4557,0.4557,0.4546,0.4582,0.457,0.4554,0.4547,0.4533,0.4518,0.4512,0.4517,0.4547,0.4553,0.4542,0.4529,0.4519,0.4521,0.4686,0.4556,0.4557,0.4558,0.4558,0.4559,0.4475,0.4454,0.4463,0.445,0.4454,0.4452,0.4434,0.445,0.4437,0.4429,0.445,0.4428,0.4433,0.4427,0.4429,0.4411,0.4433,0.4418,0.4413,0.4408,0.44,0.4524,0.441,0.441,0.4411,0.4411,0.4411,0,0.4352,0.436,0.4348,0.4346,0.4336,0.4368,0.4369,0.4357,0.4338,0.434,0.4331,0.4311,0.4297,0.4313,0.4301,0.4283,0.4297,0.4279,0.4279,0.4279,0.4382,0.4391,0.4268,0.4268,0.4268,0.4268,0.4268,0.4268,0.4286,0.4252,0.4267,0.4235,0.4243,0.4222,0.422,0.4218,0.422,0.4197,0.4185,0.4196,0.4204,0.4193,0.418,0.4185,0.4178,0.4154,0.4163,0.4258,0.4272,0.4285,0.4295,0.4153,0.4152,0.4062,0.4061,0.406]}]]